TimeMST,TemperatureF,Dew PointF,Humidity,Sea Level PressureIn,VisibilityMPH,Wind Direction,Wind SpeedMPH,Gust SpeedMPH,PrecipitationIn,Events,Conditions,WindDirDegrees,DateUTC
12:15 AM,57.2,32.0,38,30.10,10.0,West,15.0,19.6,N/A,,Scattered Clouds,280,2012-11-09 07:15:00
12:35 AM,55.4,33.8,44,30.10,10.0,West,10.4,-,N/A,,Scattered Clouds,280,2012-11-09 07:35:00
12:55 AM,55.4,37.4,51,30.09,10.0,WNW,8.1,-,N/A,,Scattered Clouds,300,2012-11-09 07:55:00
1:15 AM,53.6,35.6,51,30.09,10.0,NW,6.9,-,N/A,,Mostly Cloudy,320,2012-11-09 08:15:00
1:35 AM,53.6,33.8,47,30.08,10.0,NW,4.6,-,N/A,,Overcast,320,2012-11-09 08:35:00
1:55 AM,55.4,37.4,51,30.08,10.0,WNW,10.4,-,N/A,,Scattered Clouds,290,2012-11-09 08:55:00
2:15 AM,53.6,37.4,54,30.08,10.0,WNW,9.2,-,N/A,,Clear,290,2012-11-09 09:15:00
2:35 AM,51.8,37.4,58,30.08,10.0,WNW,9.2,-,N/A,,Clear,290,2012-11-09 09:35:00
2:55 AM,50.0,37.4,62,30.08,10.0,WNW,6.9,-,N/A,,Clear,290,2012-11-09 09:55:00
3:15 AM,48.2,35.6,62,30.07,10.0,NW,9.2,-,N/A,,Clear,310,2012-11-09 10:15:00
3:35 AM,48.2,37.4,66,30.07,10.0,NW,10.4,-,N/A,,Clear,310,2012-11-09 10:35:00
3:55 AM,48.2,37.4,66,30.07,10.0,WNW,10.4,-,N/A,,Clear,290,2012-11-09 10:55:00
4:15 AM,50.0,37.4,62,30.07,10.0,NW,10.4,-,N/A,,Clear,310,2012-11-09 11:15:00
4:35 AM,51.8,37.4,58,30.07,10.0,NW,10.4,-,N/A,,Scattered Clouds,310,2012-11-09 11:35:00
4:55 AM,51.8,37.4,58,30.08,10.0,WNW,10.4,-,N/A,,Scattered Clouds,290,2012-11-09 11:55:00
5:15 AM,53.6,39.2,58,30.09,10.0,West,11.5,-,N/A,,Clear,270,2012-11-09 12:15:00
5:35 AM,53.6,41.0,62,30.08,10.0,West,12.7,-,N/A,Rain,Light Rain,280,2012-11-09 12:35:00
5:55 AM,53.6,41.0,62,30.08,10.0,WNW,12.7,19.6,N/A,,Scattered Clouds,300,2012-11-09 12:55:00
6:15 AM,50.0,42.8,76,30.08,10.0,NW,11.5,-,N/A,,Scattered Clouds,310,2012-11-09 13:15:00
6:35 AM,50.0,44.6,82,30.11,9.0,WNW,12.7,-,N/A,Rain,Light Rain,300,2012-11-09 13:35:00
6:55 AM,50.0,46.4,87,30.10,5.0,NW,11.5,18.4,0.01,Rain,Light Rain,320,2012-11-09 13:55:00
7:15 AM,48.2,46.4,93,30.10,10.0,North,9.2,-,0.01,Rain,Light Rain,350,2012-11-09 14:15:00
7:35 AM,48.2,46.4,93,30.11,5.0,NNW,11.5,-,0.02,Rain,Rain,330,2012-11-09 14:35:00
7:55 AM,48.2,46.4,93,30.13,3.0,NNW,15.0,20.7,0.04,Rain,Rain,330,2012-11-09 14:55:00
8:15 AM,48.2,46.4,93,30.12,10.0,NNW,11.5,-,N/A,Rain,Light Rain,340,2012-11-09 15:15:00
8:35 AM,50.0,46.4,87,30.12,10.0,NNW,11.5,-,0.01,Rain,Light Rain,330,2012-11-09 15:35:00
8:55 AM,50.0,46.4,87,30.12,9.0,NNW,12.7,-,0.01,Rain,Light Rain,330,2012-11-09 15:55:00
9:15 AM,50.0,46.4,87,30.11,10.0,NNW,12.7,-,N/A,,Mostly Cloudy,330,2012-11-09 16:15:00
9:35 AM,51.8,46.4,82,30.11,10.0,NNW,8.1,-,N/A,,Mostly Cloudy,330,2012-11-09 16:35:00
9:55 AM,51.8,46.4,82,30.11,10.0,NW,13.8,19.6,N/A,,Mostly Cloudy,310,2012-11-09 16:55:00
10:15 AM,53.6,46.4,77,30.10,10.0,NW,16.1,20.7,N/A,,Mostly Cloudy,310,2012-11-09 17:15:00
10:35 AM,55.4,48.2,77,30.10,10.0,NW,11.5,-,N/A,,Scattered Clouds,310,2012-11-09 17:35:00
10:55 AM,53.6,46.4,77,30.11,10.0,WNW,13.8,-,N/A,Rain,Light Rain,300,2012-11-09 17:55:00
11:15 AM,53.6,48.2,82,30.11,7.0,WNW,17.3,24.2,N/A,Rain,Light Rain,290,2012-11-09 18:15:00
11:35 AM,53.6,46.4,77,30.08,9.0,WSW,6.9,-,N/A,,Mostly Cloudy,250,2012-11-09 18:35:00
11:55 AM,53.6,46.4,77,30.08,10.0,West,6.9,-,N/A,,Mostly Cloudy,260,2012-11-09 18:55:00
12:15 PM,55.4,46.4,72,30.05,9.0,West,5.8,-,N/A,,Mostly Cloudy,270,2012-11-09 19:15:00
12:35 PM,55.4,46.4,72,30.05,10.0,West,5.8,-,N/A,,Scattered Clouds,260,2012-11-09 19:35:00
12:55 PM,57.2,46.4,67,30.03,10.0,WSW,6.9,-,N/A,,Mostly Cloudy,240,2012-11-09 19:55:00
1:15 PM,60.8,44.6,55,30.02,10.0,WSW,8.1,-,N/A,,Mostly Cloudy,250,2012-11-09 20:15:00
1:35 PM,62.6,44.6,52,30.01,10.0,WSW,11.5,16.1,N/A,,Mostly Cloudy,250,2012-11-09 20:35:00
1:55 PM,62.6,41.0,45,29.99,10.0,WSW,13.8,18.4,N/A,,Mostly Cloudy,240,2012-11-09 20:55:00
2:15 PM,62.6,41.0,45,29.98,10.0,WSW,13.8,21.9,N/A,,Mostly Cloudy,240,2012-11-09 21:15:00
2:35 PM,62.6,41.0,45,29.98,10.0,WSW,9.2,-,N/A,,Mostly Cloudy,240,2012-11-09 21:35:00
2:55 PM,62.6,41.0,45,29.96,10.0,West,9.2,16.1,N/A,,Mostly Cloudy,270,2012-11-09 21:55:00
3:15 PM,62.6,42.8,48,29.96,10.0,West,6.9,-,N/A,,Scattered Clouds,260,2012-11-09 22:15:00
3:35 PM,64.4,41.0,42,29.95,10.0,WSW,8.1,-,N/A,,Scattered Clouds,240,2012-11-09 22:35:00
3:55 PM,64.4,41.0,42,29.95,10.0,SW,5.8,-,N/A,Thunderstorm,Scattered Clouds,220,2012-11-09 22:55:00
4:15 PM,64.4,39.2,40,29.94,10.0,West,6.9,-,N/A,Thunderstorm,Partly Cloudy,260,2012-11-09 23:15:00
4:35 PM,64.4,39.2,40,29.94,10.0,WSW,9.2,-,N/A,,Partly Cloudy,240,2012-11-09 23:35:00
4:55 PM,62.6,39.2,42,29.93,10.0,West,9.2,-,N/A,,Partly Cloudy,260,2012-11-09 23:55:00
5:15 PM,60.8,41.0,48,29.94,10.0,West,8.1,-,N/A,,Scattered Clouds,260,2012-11-10 00:15:00
5:35 PM,59.0,39.2,48,29.94,10.0,West,6.9,-,N/A,,Partly Cloudy,270,2012-11-10 00:35:00
5:55 PM,59.0,41.0,51,29.95,10.0,West,6.9,-,N/A,,Clear,270,2012-11-10 00:55:00
6:15 PM,57.2,44.6,63,29.95,10.0,West,19.6,27.6,N/A,,Partly Cloudy,280,2012-11-10 01:15:00
6:55 PM,55.4,41.0,58,29.95,10.0,West,5.8,-,N/A,,Clear,280,2012-11-10 01:55:00
7:15 PM,51.8,44.6,76,29.94,10.0,West,4.6,-,N/A,,Clear,260,2012-11-10 02:15:00
7:35 PM,53.6,44.6,72,29.95,10.0,West,3.5,-,N/A,,Clear,260,2012-11-10 02:35:00
7:55 PM,53.6,42.8,67,29.95,10.0,WSW,6.9,-,N/A,,Partly Cloudy,240,2012-11-10 02:55:00
8:15 PM,57.2,39.2,51,29.96,10.0,SW,12.7,18.4,N/A,,Partly Cloudy,230,2012-11-10 03:15:00
8:35 PM,55.4,39.2,54,29.96,10.0,SW,9.2,-,N/A,,Partly Cloudy,230,2012-11-10 03:35:00
8:55 PM,55.4,39.2,54,29.97,10.0,WSW,8.1,-,N/A,,Scattered Clouds,240,2012-11-10 03:55:00
9:15 PM,55.4,37.4,51,29.97,10.0,WSW,6.9,-,N/A,,Mostly Cloudy,240,2012-11-10 04:15:00
9:35 PM,55.4,37.4,51,29.96,10.0,WSW,5.8,-,N/A,,Partly Cloudy,250,2012-11-10 04:35:00
9:55 PM,55.4,37.4,51,29.96,10.0,West,8.1,-,N/A,,Clear,270,2012-11-10 04:55:00
10:15 PM,55.4,37.4,51,29.96,10.0,SSW,4.6,-,N/A,,Clear,200,2012-11-10 05:15:00
10:35 PM,51.8,37.4,58,29.96,10.0,South,5.8,-,N/A,,Partly Cloudy,190,2012-11-10 05:35:00
10:55 PM,50.0,37.4,62,29.95,10.0,SW,4.6,-,N/A,,Clear,220,2012-11-10 05:55:00
11:15 PM,53.6,37.4,54,29.95,10.0,SSW,11.5,17.3,N/A,,Clear,210,2012-11-10 06:15:00
11:35 PM,53.6,37.4,54,29.94,10.0,South,9.2,-,N/A,,Clear,180,2012-11-10 06:35:00
11:55 PM,51.8,37.4,58,29.94,10.0,South,5.8,-,N/A,,Clear,190,2012-11-10 06:55:00